Regional Weather Roundup
Issued by NWS

Home | Current Version | Previous Version | Graphics & Text | Print | Product List | Glossary On
Versions: 1 2 3 4 5 6 7 8 9 10 11 12 13 14 15 16 17 18 19 20 21 22 23 24 25 26 27 28 29 30 31 32 33 34 35 36 37 38 39 40 41 42 43 44 45 46 47 48 49 50
000
ASUS44 KMEG 291700
RWRTN
TENNESSEE HOURLY STATE WEATHER ROUNDUP
NATIONAL WEATHER SERVICE MEMPHIS TN
1200 PM CDT WED MAR 29 2017

TNZ002-004-019-021-049-052-054-088>092-291800-
WEST TENNESSEE

CITY           SKY/WX    TMP DP  RH WIND       PRES   REMARKS
MEMPHIS INTL   PTSUNNY   76  62  62 S14G24    29.95F
NWS MEMPHIS      N/A     76 N/A N/A MISG        N/A
JACKSON        PTSUNNY   76  62  62 S6        29.99F
DYERSBURG      MOSUNNY   73  61  65 SE8       29.99S
PARIS          SUNNY     66  54  63 SE10      30.02F
$$

TNZ008-025-027-028-033-062-065-066-291800-
NORTH MIDDLE TENNESSEE

CITY           SKY/WX    TMP DP  RH WIND       PRES   REMARKS
NASHVILLE      PTSUNNY   71  52  50 CALM      30.08R
CLARKSVILLE    PTSUNNY   67  55  65 E7        30.05F
SMYRNA         PTSUNNY   71  54  54 VRB5      30.09R
CROSSVILLE     SUNNY     69  50  50 VRB6      30.09S
$$

TNZ061-075-076-078-094-096-097-291800-
SOUTH MIDDLE TENNESSEE

CITY           SKY/WX    TMP DP  RH WIND       PRES   REMARKS
TULLAHOMA      CLOUDY    73  52  46 CALM      30.08R
WINCHESTER     MOSUNNY   77  55  47 CALM      30.06S
MCMINNVILLE    SUNNY     73  54  49 VRB6      30.06S
COLUMBIA       SUNNY     73  59  60 E3        30.03F
SHELBYVILLE    CLOUDY    75  55  50 CALM      30.08R
$$

TNZ017-018-042-046-047-291800-
NORTHEAST TENNESSEE

CITY           SKY/WX    TMP DP  RH WIND       PRES   REMARKS
TRI CITIES     MOSUNNY   69  50  50 CALM      30.08F
$$

TNZ012-013-036-069-073-074-291800-
CENTRAL EAST TENNESSEE

CITY           SKY/WX    TMP DP  RH WIND       PRES   REMARKS
KNOXVILLE      MOSUNNY   70  52  52 CALM      30.05F
OAK RIDGE      SUNNY     71  51  49 VRB5      30.07F
GATLINBURG     SUNNY     70  54  56 VRB5      30.05F
$$

TNZ083-085-099-291800-
SOUTHEAST TENNESSEE

CITY           SKY/WX    TMP DP  RH WIND       PRES   REMARKS
CHATTANOOGA    MOSUNNY   73  53  49 CALM      30.06F
$$

SKY/WX REPORTED AS FAIR MEANS FEW OR NO CLOUDS BELOW
12 THOUSAND FEET.





USA.gov is the U.S. government's official web portal to all federal, state and local government web resources and services.